GFSMA_prec_cloud_021.txt.gz
Cloud_Cover
10 0 3 49 29 62 73 100 100 0 0 0 0 0 30 1 9 32 0 0 0 0 4 4 59 96 91 47 85 99 86 51 4 13 1 0 2 0 2 0 5 36 12
0 0 0 79 100 61 100 22 33 0 0 0 100 96 6 0 34 1 0 0 0 0 0 2 1 100 100 20 14 34 100 100 34 5 6 0 0 0 5 0 1 4 10
0 0 0 0 0 24 97 61 91 0 96 100 22 1 1 0 0 35 2 0 0 0 0 0 0 32 100 100 100 84 16 56 100 90 8 79 2 0 0 0 0 5 5
0 0 0 0 11 100 25 0 0 2 0 0 0 0 0 76 13 97 0 2 0 0 0 0 0 0 82 100 100 100 100 100 100 100 81 60 66 0 0 0 5 4 5
1 0 0 0 0 76 0 0 0 0 0 0 0 0 0 5 88 1 45 4 2 21 0 0 0 0 0 70 100 100 100 100 100 100 100 78 92 94 89 0 1 3 0
0 0 0 0 0 0 0 0 48 81 0 0 0 0 0 0 0 12 100 19 0 56 100 5 1 16 2 5 92 100 100 100 100 100 100 100 88 89 86 61 4 0 1
0 0 0 0 0 4 3 65 0 0 0 0 0 54 0 18 91 77 0 4 2 4 2 5 12 27 97 5 17 5 92 100 100 100 100 100 100 99 88 45 37 3 0
0 0 0 0 0 13 3 7 0 0 0 5 0 0 6 56 72 98 97 31 0 4 9 53 5 2 7 1 2 2 5 98 100 100 100 100 100 100 100 100 100 42 5
34 0 0 0 0 0 0 0 0 0 0 0 0 0 1 0 100 38 94 16 1 3 8 100 5 16 24 3 0 0 1 5 100 100 100 100 100 100 100 100 97 98 69
0 0 0 0 0 5 30 0 0 2 68 5 0 0 0 0 0 54 39 2 13 6 5 77 75 19 7 74 2 8 0 1 49 100 100 100 100 100 100 100 100 100 100
0 0 0 0 0 0 0 0 0 2 3 2 5 0 0 22 3 3 1 0 49 14 99 100 6 55 54 50 9 83 25 0 0 89 100 100 100 100 100 100 100 100 100
0 0 0 0 0 0 0 0 0 1 0 0 0 0 0 0 0 0 4 2 5 4 22 100 100 88 9 48 82 25 73 8 1 3 33 100 100 100 100 100 100 100 100
0 0 0 0 0 0 0 0 5 8 5 5 4 3 0 0 0 0 2 4 5 6 12 100 100 96 100 79 34 87 8 8 29 4 2 4 52 100 100 100 100 100 100
0 0 0 0 0 0 0 0 7 54 96 11 93 83 5 4 4 4 5 5 18 5 6 100 100 100 99 6 10 5 32 90 15 93 21 5 0 4 96 100 100 100 100
0 0 0 0 0 0 1 4 5 83 5 53 16 23 63 9 50 86 60 33 14 58 22 100 100 100 62 21 53 84 9 5 5 5 5 3 5 4 3 7 53 100 100
0 0 0 0 0 0 0 0 2 5 13 61 42 44 100 83 5 47 100 70 90 100 100 100 100 74 77 48 97 98 100 36 5 5 5 5 3 5 4 0 1 0 6
0 0 0 0 0 0 4 0 0 0 0 14 38 5 48 44 65 5 80 92 100 100 100 100 96 100 100 100 100 100 100 98 12 5 12 5 2 4 0 0 4 5 4
0 0 0 0 0 0 0 12 65 5 0 17 21 5 28 61 93 72 95 100 100 97 100 100 100 100 100 100 100 100 100 100 100 100 10 4 33 12 5 29 81 5 6
0 0 0 0 5 5 5 31 99 5 5 4 0 5 49 93 100 100 100 75 99 79 90 95 100 100 100 100 100 100 100 100 100 100 100 100 100 97 5 100 100 100 96
0 0 0 0 5 4 32 62 74 100 6 0 0 5 43 100 100 40 99 100 100 75 58 45 100 100 100 96 100 100 100 100 100 100 100 100 100 65 100 100 100 100 100
0 0 0 0 3 5 5 75 97 56 90 0 0 0 36 100 100 100 100 100 100 100 100 100 100 100 100 100 100 100 100 100 100 100 97 96 100 100 100 99 100 100 5
0 5 5 0 5 5 8 18 69 80 99 4 0 0 21 98 100 100 100 100 100 100 100 100 100 100 100 100 100 99 84 99 100 100 100 100 100 100 100 100 99 100 100
0 5 5 5 5 69 79 88 94 69 39 0 0 4 90 100 100 100 87 45 100 100 100 100 88 87 80 99 100 100 100 52 99 100 62 91 76 97 100 100 82 79 6
5 5 5 9 35 34 70 90 100 99 100 39 43 85 100 100 100 100 100 100 100 100 100 98 87 91 64 19 5 15 5 5 20 25 2 0 0 0 0 0 0 0 0
5 5 0 21 89 100 100 100 100 100 100 100 100 95 54 100 100 70 76 100 100 100 95 71 12 5 5 5 5 1 0 0 0 0 0 0 0 0 0 0 0 0 0
5 0 23 53 100 100 100 100 100 100 100 100 100 20 100 96 99 10 47 91 90 96 15 17 50 81 45 6 5 2 0 0 0 3 0 0 0 0 0 0 0 0 0

GFSMA_prec_cloud_024.txt.gz
Cloud_Cover
0 0 0 30 34 76 63 55 98 93 0 0 0 2 6 0 10 0 0 0 0 0 1 82 100 100 100 100 100 98 100 66 5 5 7 0 0 0 0 0 5 6 9
1 0 0 28 90 66 100 100 50 0 1 55 68 44 2 0 0 0 1 0 0 0 0 0 11 97 100 100 100 95 91 100 100 54 5 4 0 1 0 1 7 5 5
0 0 0 0 0 2 96 98 35 45 98 19 0 0 0 0 96 70 5 0 0 0 0 0 0 4 98 100 100 100 99 72 100 92 51 5 4 4 2 3 4 5 5
0 0 0 0 0 3 96 0 0 0 0 0 0 0 18 99 78 6 0 5 1 2 0 0 0 0 3 98 100 100 100 100 100 100 100 24 23 11 5 0 0 2 5
0 0 0 0 0 0 32 0 0 0 0 0 0 0 0 67 69 9 80 5 3 19 5 0 0 0 0 1 100 100 100 100 100 100 100 100 98 100 21 10 3 0 0
0 0 0 0 0 0 0 0 0 5 0 0 0 0 0 2 0 2 100 1 5 72 98 1 0 14 4 5 61 100 100 100 100 100 100 100 100 100 100 99 87 5 3
0 0 0 0 0 0 0 0 0 0 0 0 0 0 5 0 0 9 50 23 0 3 20 5 4 5 84 2 3 87 93 100 100 100 100 100 100 100 100 100 100 100 26
22 0 0 0 0 0 0 0 0 0 0 1 0 0 9 1 18 76 91 74 1 0 0 23 59 5 4 0 2 0 0 23 100 100 100 100 100 100 100 100 100 100 100
0 0 7 0 0 0 0 0 0 0 0 0 0 0 0 0 53 80 0 91 0 0 0 0 14 48 33 5 5 3 0 0 31 100 100 100 100 100 100 100 100 100 100
38 0 0 0 0 0 0 0 0 0 0 0 0 0 0 0 0 0 0 34 0 1 6 0 0 93 69 8 5 5 2 0 0 5 68 100 100 100 100 100 100 100 100
0 0 0 0 0 0 0 0 1 5 5 5 4 0 1 0 0 0 0 0 0 9 5 5 71 5 78 98 97 5 5 0 0 2 0 8 99 100 100 100 100 100 100
0 0 0 0 0 0 0 4 5 14 36 5 5 5 5 4 0 0 0 0 0 5 3 2 5 88 100 15 100 81 12 5 5 0 0 0 3 76 100 100 100 100 100
0 0 0 0 0 0 0 0 8 8 5 5 5 5 5 5 4 0 0 0 6 47 5 5 5 0 34 99 100 58 4 16 44 45 5 0 4 1 34 100 100 100 100
0 0 0 0 0 0 0 0 0 5 13 11 13 7 62 11 32 5 5 4 3 4 97 74 8 87 75 19 100 87 5 5 5 52 86 68 87 52 3 3 88 100 100
0 0 0 0 0 0 0 0 0 7 51 48 73 96 36 5 24 52 7 7 5 30 20 5 22 81 100 98 6 0 1 39 63 26 31 8 70 62 46 10 6 3 6
0 0 0 0 0 0 0 0 0 0 6 3 6 95 89 45 8 5 16 36 49 64 47 5 6 100 67 100 100 35 0 4 64 100 56 99 5 20 51 45 11 20 15
0 0 0 0 0 0 0 0 0 1 2 2 5 0 2 10 94 86 48 78 53 57 40 100 36 9 5 97 97 99 76 100 62 100 6 41 76 39 8 42 5 82 43
0 0 0 0 0 4 1 5 5 5 5 5 3 2 4 5 53 94 6 100 5 57 100 100 100 40 75 58 14 97 100 100 100 100 100 100 92 93 100 96 30 90 23
0 0 0 0 0 5 5 5 8 5 5 5 5 4 0 5 5 9 81 40 100 100 100 100 100 25 70 100 98 100 100 99 100 100 100 68 100 100 100 100 100 100 100
0 0 0 0 0 5 5 5 5 2 5 5 4 5 1 0 5 87 10 66 100 100 100 88 100 100 100 96 100 100 100 100 100 100 100 100 100 100 100 100 100 100 100
0 0 1 5 5 8 5 5 1 5 5 5 5 0 0 0 16 98 29 49 95 100 100 100 100 100 100 100 83 97 75 100 100 100 100 65 59 29 53 32 100 100 82
0 0 1 5 5 5 5 5 5 5 5 21 6 5 5 8 69 98 5 34 99 49 88 100 100 100 100 100 57 27 5 90 99 64 1 40 99 84 100 47 2 5 22
0 0 3 5 5 5 5 5 5 6 34 66 94 88 71 10 63 54 74 65 26 64 98 100 100 100 100 72 77 96 42 5 5 5 0 0 0 0 2 1 0 0 0
5 2 1 0 0 0 5 5 11 86 95 99 100 100 100 69 91 23 98 100 21 80 100 100 100 92 92 64 12 5 74 17 40 72 38 0 2 0 0 0 0 0 0
49 19 0 0 0 4 25 98 100 100 100 100 100 100 100 100 67 40 100 46 51 99 31 42 81 90 85 70 42 75 100 96 100 100 100 36 82 5 0 0 0 0 0
2 4 53 27 5 68 100 100 100 100 100 100 94 72 93 92 32 90 88 8 7 19 6 18 6 72 83 94 98 10 52 100 89 96 100 90 1 0 0 0 0 0 0

GFSMA_prec_cloud_030.txt.gz
Cloud_Cover
0 0 0 0 24 72 74 92 100 14 0 0 12 10 99 1 0 0 0 0 0 0 0 5 5 10 89 100 100 100 100 100 90 45 31 18 5 5 5 5 5 5 25
2 0 0 28 41 56 56 100 39 44 33 73 5 0 0 2 3 0 0 0 0 0 0 0 9 89 99 14 72 100 100 100 100 97 94 32 5 45 5 5 5 5 54
0 0 0 0 0 2 0 81 8 25 99 81 55 0 0 0 91 0 0 0 0 0 0 0 0 0 48 74 62 85 100 100 100 100 100 100 26 10 19 67 23 6 25
0 0 0 0 0 0 0 37 94 0 0 50 100 0 0 51 84 0 0 0 0 0 0 0 0 5 5 11 94 100 100 100 100 100 100 100 82 22 30 41 100 77 5
0 0 0 0 0 0 0 71 4 0 0 6 48 0 4 98 96 17 0 0 0 0 0 0 0 2 3 1 3 90 100 100 100 100 99 100 97 100 100 100 100 100 95
0 0 0 0 0 0 0 0 0 0 0 0 0 0 1 3 4 88 0 0 0 0 0 0 0 0 0 1 2 1 40 100 100 100 100 100 100 100 100 100 100 100 100
0 0 0 0 0 0 0 0 0 0 0 0 0 0 0 0 0 0 2 0 0 0 0 0 0 0 42 57 1 4 3 14 100 100 100 100 100 100 100 100 100 100 100
0 0 2 0 0 0 0 0 0 0 0 0 0 0 0 0 0 0 86 4 0 0 0 0 0 0 0 0 0 0 4 0 1 77 100 100 100 100 100 100 100 100 100
0 0 82 0 0 0 0 0 1 0 4 0 0 0 0 1 0 0 76 0 7 0 0 0 4 2 0 0 0 0 5 2 2 4 14 100 100 100 100 100 100 100 100
0 0 0 0 0 0 0 4 5 5 5 3 0 2 5 5 5 14 7 0 0 15 0 0 0 3 5 0 1 0 1 4 60 5 5 5 93 100 100 100 100 100 100
0 0 19 0 0 0 0 4 5 5 5 4 3 0 0 5 5 5 5 5 2 0 0 4 5 5 5 5 5 5 47 5 30 99 100 5 2 13 100 100 100 100 100
0 0 0 0 0 0 0 0 2 3 5 5 4 5 1 1 5 25 5 1 0 0 4 5 3 2 2 5 18 86 100 100 99 96 100 97 23 5 7 62 99 100 100
6 0 0 0 0 0 0 0 1 0 2 2 5 5 5 5 5 31 51 40 5 0 4 4 3 1 0 0 1 22 58 100 95 100 100 100 100 98 29 29 5 4 68
0 0 0 0 0 0 0 0 0 0 0 0 2 5 5 4 5 50 36 51 96 71 5 5 5 5 5 5 2 0 5 5 100 63 27 100 100 100 100 100 100 44 2
0 0 0 0 0 0 0 0 0 0 0 0 4 2 0 0 5 20 62 39 91 65 22 5 5 5 5 14 6 6 36 97 40 98 90 16 10 98 100 100 84 5 5
0 0 0 0 0 0 0 0 0 0 0 0 5 5 1 0 2 5 16 54 8 10 96 100 41 65 55 54 32 72 50 5 5 5 12 94 100 89 100 30 5 81 39
0 0 0 0 0 0 0 0 0 0 0 0 0 1 1 5 5 5 5 26 5 6 57 54 95 33 35 97 32 99 91 7 5 8 6 85 100 100 100 100 91 60 64
0 0 0 0 0 0 0 0 0 0 0 0 0 5 5 5 5 7 5 5 20 5 18 8 5 53 25 94 99 70 7 5 5 5 8 99 100 100 100 89 100 99 96
0 0 0 0 0 0 0 0 0 0 0 0 0 1 5 41 22 16 29 98 16 7 37 12 5 5 50 5 8 58 100 6 71 100 100 35 20 18 96 75 52 80 100
0 0 0 0 0 0 0 0 0 0 0 0 2 5 17 71 100 79 100 88 99 19 94 8 10 5 27 54 29 59 100 78 78 100 100 86 58 82 92 69 100 100 100
0 0 0 0 0 0 0 0 0 0 0 4 5 5 5 95 100 100 100 100 100 14 98 10 5 5 8 59 50 35 96 100 89 16 33 45 52 2 3 4 28 9 4
0 0 0 0 0 0 0 0 0 0 1 49 6 5 5 84 100 100 100 100 98 100 99 53 5 5 9 91 29 76 100 80 5 5 5 66 5 23 30 5 4 4 5
0 0 0 0 0 0 0 0 0 5 5 14 5 5 5 85 100 100 100 100 100 100 99 100 39 64 68 37 16 5 5 5 5 5 5 23 34 5 4 4 4 4 1
0 0 0 0 0 0 0 0 0 5 5 7 5 5 69 100 100 95 100 100 100 100 100 79 65 15 43 8 7 5 5 11 19 5 7 54 0 0 0 0 0 0 0
0 0 0 0 0 0 3 0 1 4 5 1 10 99 100 100 100 100 100 100 100 100 100 91 82 100 24 5 5 14 43 61 11 0 2 0 0 0 0 0 0 0 0
5 0 11 92 81 20 46 3 2 1 38 25 28 100 100 100 100 100 76 100 100 100 100 97 99 52 72 10 19 5 5 0 0 0 0 0 0 0 0 0 0 0 0

GFSMA_prec_cloud_033.txt.gz
Cloud_Cover
0 0 0 0 0 68 83 2 68 73 70 27 9 0 10 0 0 0 0 0 0 0 6 10 27 25 84 6 100 99 88 100 100 100 14 5 5 5 5 5 5 5 5
0 0 0 22 40 47 36 100 2 86 94 54 57 2 0 0 0 0 0 0 0 0 0 4 3 6 45 6 6 74 96 100 100 100 98 24 5 5 30 16 21 11 5
0 0 0 0 0 0 1 24 97 100 100 100 47 2 0 2 0 0 0 0 0 0 0 0 0 5 6 5 75 55 92 100 100 99 100 100 92 48 7 5 18 29 5
0 0 0 0 0 0 0 0 100 5 0 40 99 36 0 33 64 0 0 0 0 0 0 0 0 3 0 2 24 90 100 100 100 100 100 100 100 100 99 100 100 97 77
0 0 0 0 0 0 0 0 4 0 0 0 0 17 1 40 38 0 0 0 0 0 0 0 0 0 0 4 1 27 81 100 86 100 100 100 100 100 100 100 100 100 100
1 0 0 0 0 0 0 0 0 0 0 0 0 0 6 14 48 0 0 0 0 0 0 0 0 0 0 0 3 0 4 5 62 98 100 98 100 100 100 100 100 100 100
0 0 0 0 0 0 0 0 0 0 0 0 0 5 5 6 6 5 0 0 0 0 0 0 0 0 0 0 0 0 0 0 0 0 89 100 100 100 100 100 100 100 100
0 0 0 0 0 0 0 0 0 0 0 0 0 0 5 5 17 6 29 1 1 0 0 0 0 0 0 5 5 3 0 0 0 0 0 100 100 100 96 100 100 100 100
0 0 0 0 0 0 0 0 0 0 0 0 0 0 4 13 5 12 12 8 42 37 51 40 0 1 5 33 67 5 5 0 5 5 1 1 86 100 100 100 100 100 76
0 0 0 0 0 0 0 0 0 1 0 0 0 0 0 0 2 81 79 60 61 61 37 82 98 39 6 1 2 5 5 5 5 35 94 27 7 54 100 100 100 100 100
0 0 0 0 0 0 0 2 0 3 0 0 0 0 0 0 0 10 96 73 47 54 29 88 63 38 54 3 0 0 4 69 70 100 100 99 99 93 6 95 100 100 100
0 0 0 0 0 0 0 0 2 1 2 0 0 0 0 0 5 5 18 11 76 61 88 100 100 10 16 0 0 0 0 0 5 29 90 68 10 69 93 21 5 91 100
0 0 0 0 0 0 0 0 0 0 0 0 0 0 0 0 5 2 5 5 5 17 11 72 29 93 33 5 0 0 0 0 0 0 4 51 80 63 65 100 100 97 30
0 0 0 0 0 0 0 0 0 0 0 0 0 0 0 0 1 0 5 5 5 9 20 7 5 8 2 5 3 2 0 1 0 3 5 1 0 0 5 92 18 100 98
0 0 0 0 0 0 0 0 0 0 0 0 0 0 0 0 0 0 4 5 5 5 5 5 5 7 5 5 5 5 5 5 6 12 44 0 0 0 0 1 8 3 5
0 0 0 0 0 0 0 0 0 0 0 0 0 0 0 1 2 2 2 4 2 1 18 5 10 4 0 4 5 5 5 10 13 19 98 100 56 5 5 39 96 54 6
0 0 0 0 0 0 0 0 0 0 0 0 0 0 3 2 5 5 4 0 1 5 100 92 5 23 14 6 10 5 5 5 37 6 49 100 100 80 31 39 54 5 92
0 0 0 0 0 0 0 0 0 0 0 0 0 0 0 5 5 5 5 5 5 61 57 6 51 100 60 6 98 68 5 5 12 97 94 13 9 99 5 5 5 5 5
0 0 0 0 0 0 0 0 0 0 0 0 0 0 5 50 5 35 62 82 38 19 7 94 5 100 100 64 100 27 5 5 5 93 99 100 100 100 29 69 53 67 38
0 0 0 0 0 0 0 0 0 0 0 0 0 5 5 9 5 85 45 75 99 70 100 31 5 100 54 5 32 5 5 5 13 70 95 100 99 5 5 28 67 37 4
0 0 0 0 0 0 0 0 0 0 0 3 4 9 6 13 35 5 68 100 100 100 96 5 96 5 5 4 3 5 5 5 6 87 42 72 100 35 5 5 5 5 1
0 0 0 0 0 0 0 0 0 0 3 3 0 5 39 6 8 0 5 97 100 6 0 4 68 6 5 3 0 5 5 6 96 12 40 86 100 5 5 5 5 1 0
0 0 0 0 0 0 0 0 0 0 4 0 0 0 5 8 4 5 16 6 34 4 4 4 92 13 6 3 5 22 100 100 52 100 100 100 8 10 0 0 0 0 0
0 0 0 0 0 0 0 0 0 0 0 0 1 42 4 0 28 11 98 76 5 5 5 22 57 46 8 5 7 100 100 100 93 100 100 63 5 2 0 0 0 0 0
32 51 4 0 0 5 0 0 0 0 0 6 92 37 1 61 40 18 98 92 14 66 78 92 96 71 98 30 100 96 97 100 100 100 100 35 4 0 0 0 0 0 0
100 100 37 27 6 9 16 78 94 80 3 99 19 25 78 100 100 99 100 100 100 100 100 100 92 100 100 100 100 100 100 100 100 100 96 1 0 0 0 0 0 0 0